Shungnak AP, Shungnak, AK, AK

5:50 PM AKST on December 09, 2019 (GMT -0900)
Shungnak AP, Shungnak, AK

Weather History for PAGH - October, 2019

Change the Weather History Date:

Wednesday, October 9, 2019

  Actual Average (PAFM) Record (PAFM)
Temperature  
Mean Temperature 35 °F -  
Max Temperature 37 °F 28 °F 50 °F (2006)
Min Temperature 33 °F 20 °F 3 °F (1988)
Degree Days  
Heating Degree Days 30    
Moisture  
Dew Point 35 °F    
Average Humidity 98    
Maximum Humidity 100    
Minimum Humidity 93    
Precipitation  
Precipitation 0.37 in - - ()
Sea Level Pressure  
Sea Level Pressure 29.82 in    
Wind  
Wind Speed 12 mph (ESE)    
Max Wind Speed 17 mph    
Max Gust Speed 20 mph    
Visibility 9 miles    
Events Rain    
Averages and records for this station are not official NWS values.
T = Trace of Precipitation, MM = Missing Value Source: NWS Daily Summary

Daily Weather History Graph

Daily Weather History Graph

Search for Another Location

Airport or City:

Astronomy

Oct. 09, 2019 Rise Set
Actual Time 9:07 AM AKDT 7:22 PM AKDT
Civil Twilight 8:14 AM AKDT 8:15 PM AKDT
Nautical Twilight 7:12 AM AKDT 9:17 PM AKDT
Astronomical Twilight 6:06 AM AKDT 10:22 PM AKDT
Moon 8:05 PM AKDT (10/9) 2:34 AM AKDT (10/9)
Length of Visible Light 12h 01m
Length of Day
10h 15m
Waxing Gibbous, 86% of the Moon is Illuminated
Oct 9
Waxing Gibbous
Oct 13
Full
Oct 21
Last Quarter
Oct 27
New
Nov 4
First Quarter

Hourly Weather History & Observations

Time (AKDT) Temp. Windchill Dew Point Humidity Pressure Visibility Wind Dir Wind Speed Gust Speed Precip Events Conditions
12:56 AM 34.0 °F 23.8 °F 33.1 °F 96% 29.84 in 10.0 mi East 16.1 mph - 0.01 in Rain Light Rain
1:56 AM 34.0 °F 24.6 °F - N/A% 29.83 in 10.0 mi ESE 13.8 mph - 0.02 in Rain Light Rain
2:13 AM 33.8 °F 23.9 °F 33.8 °F 100% 29.81 in 10.0 mi ESE 15.0 mph - 0.00 in Rain Light Rain
2:36 AM 33.8 °F 23.5 °F 33.8 °F 100% 29.81 in 10.0 mi ESE 16.1 mph - 0.01 in Rain Light Rain
2:56 AM 34.0 °F 23.4 °F 33.1 °F 96% 29.83 in 10.0 mi ESE 17.3 mph - 0.01 in Rain Light Rain
3:56 AM 34.0 °F 25.0 °F 33.1 °F 96% 29.82 in 10.0 mi East 12.7 mph - 0.03 in Rain Light Rain
4:07 AM 33.8 °F 24.3 °F 33.8 °F 100% 29.80 in 10.0 mi ESE 13.8 mph - 0.00 in Rain Light Rain
4:56 AM 34.0 °F 24.2 °F 33.1 °F 96% 29.82 in 10.0 mi ESE 15.0 mph - 0.02 in Rain Light Rain
5:06 AM 33.8 °F 25.3 °F 33.8 °F 100% 29.80 in 10.0 mi ESE 11.5 mph - 0.01 in Rain Light Rain
5:56 AM 34.0 °F 25.5 °F 33.1 °F 96% 29.81 in 10.0 mi East 11.5 mph - 0.03 in Rain Light Rain
6:56 AM 34.0 °F 25.5 °F 34.0 °F 100% 29.81 in 10.0 mi East 11.5 mph - 0.01 in Rain Light Rain
7:47 AM 35.6 °F 27.1 °F 33.8 °F 93% 29.78 in 10.0 mi East 12.7 mph - 0.00 in Rain Light Rain
7:56 AM 35.1 °F 26.9 °F 34.0 °F 96% 29.80 in 10.0 mi East 11.5 mph - 0.00 in Rain Light Rain
8:37 AM 35.6 °F 26.6 °F 33.8 °F 93% 29.78 in 10.0 mi East 13.8 mph - 0.01 in Rain Light Rain
8:56 AM 35.1 °F 25.9 °F 34.0 °F 96% 29.80 in 10.0 mi East 13.8 mph - 0.01 in   Overcast
9:56 AM 35.1 °F 25.9 °F 34.0 °F 96% 29.80 in 10.0 mi ESE 13.8 mph 19.6 mph 0.00 in   Overcast
10:56 AM 35.1 °F 26.9 °F 34.0 °F 96% 29.81 in 10.0 mi ESE 11.5 mph - 0.01 in Rain Rain
11:56 AM 35.1 °F 27.4 °F 35.1 °F 100% 29.82 in 10.0 mi East 10.4 mph - 0.07 in Rain Light Rain
12:33 PM 35.6 °F 28.0 °F 35.6 °F 100% 29.80 in 10.0 mi ESE 10.4 mph - 0.00 in Rain Light Rain
12:44 PM 35.6 °F 26.6 °F 35.6 °F 100% 29.80 in 10.0 mi ESE 13.8 mph - 0.00 in Rain Light Rain
12:56 PM 36.0 °F 27.5 °F 35.1 °F 97% 29.82 in 10.0 mi East 12.7 mph - 0.00 in Rain Light Rain
1:37 PM 35.6 °F 28.0 °F 35.6 °F 100% 29.81 in 10.0 mi East 10.4 mph - 0.00 in Rain Light Rain
1:56 PM 36.0 °F 28.0 °F 35.1 °F 97% 29.83 in 10.0 mi ESE 11.5 mph - 0.00 in Rain Light Rain
2:56 PM 36.0 °F 28.5 °F 35.1 °F 97% 29.83 in 6.0 mi ESE 10.4 mph - 0.02 in Rain Light Rain
3:56 PM 36.0 °F 29.6 °F 35.1 °F 97% 29.84 in 7.0 mi ESE 8.1 mph - 0.05 in Rain Light Rain
4:06 PM 35.6 °F 29.2 °F 35.6 °F 100% 29.82 in 4.0 mi East 8.1 mph - 0.01 in Rain Light Rain
4:21 PM 35.6 °F 29.2 °F 35.6 °F 100% 29.82 in 6.0 mi East 8.1 mph - 0.01 in Rain Light Rain
4:32 PM 35.6 °F 29.2 °F 35.6 °F 100% 29.82 in 6.0 mi East 8.1 mph - 0.01 in Rain Light Rain
4:47 PM 35.6 °F 29.2 °F 35.6 °F 100% 29.82 in 6.0 mi East 8.1 mph - 0.01 in   Overcast
4:56 PM 36.0 °F 30.3 °F 35.1 °F 97% 29.84 in 5.0 mi East 6.9 mph - 0.01 in   Overcast
5:17 PM 35.6 °F 29.2 °F 35.6 °F 100% 29.82 in 6.0 mi East 8.1 mph - 0.00 in Rain Light Rain
5:48 PM 35.6 °F 29.2 °F 35.6 °F 100% 29.83 in 5.0 mi East 8.1 mph - 0.02 in Rain Light Rain
5:56 PM 37.0 °F 31.6 °F 36.0 °F 96% 29.85 in 7.0 mi ESE 6.9 mph - 0.02 in Rain Light Rain
6:17 PM 37.4 °F 32.8 °F 35.6 °F 93% 29.83 in 8.0 mi ESE 5.8 mph - 0.00 in Rain Light Rain
6:56 PM 36.0 °F 30.3 °F 36.0 °F 100% 29.86 in 10.0 mi ESE 6.9 mph - 0.01 in Rain Light Rain
7:56 PM 36.0 °F 29.6 °F 35.1 °F 97% 29.86 in 10.0 mi ESE 8.1 mph - 0.01 in Rain Light Rain
8:56 PM 36.0 °F 29.6 °F 35.1 °F 97% 29.87 in 10.0 mi ESE 8.1 mph - 0.02 in Rain Light Rain
9:56 PM 35.1 °F 29.3 °F 35.1 °F 100% 29.88 in 9.0 mi ESE 6.9 mph - 0.00 in Rain Light Rain
10:20 PM 35.6 °F 30.7 °F 35.6 °F 100% 29.86 in 8.0 mi ESE 5.8 mph - 0.01 in Rain Light Rain
11:56 PM 35.1 °F 32.2 °F 34.0 °F 96% 29.89 in 10.0 mi ESE 3.5 mph - 0.01 in Rain Light Rain